Quincy, IL

2:54 AM CDT on March 26, 2017 (GMT -0500)
Quincy Regional-Baldwin

Weather History for KUIN - November, 2014

Change the Weather History Date:

Friday, November 28, 2014

  Actual Average Record
Temperature  
Mean Temperature 34 °F 36 °F  
Max Temperature 48 °F 44 °F 68 °F (1927)
Min Temperature 19 °F 28 °F 6 °F (1977)
Degree Days  
Heating Degree Days 31 29  
Month to date heating degree days 826 618  
Since 1 July heating degree days 1239 1042  
Cooling Degree Days 0 0  
Month to date cooling degree days 0 0  
Year to date cooling degree days 1021 1093  
Moisture  
Dew Point 26 °F    
Average Humidity 71    
Maximum Humidity 88    
Minimum Humidity 53    
Precipitation  
Precipitation 0.00 in 0.10 in 1.47 in (1968)
Month to date precipitation 0.85 2.83  
Year to date precipitation 38.81 34.89  
Sea Level Pressure  
Sea Level Pressure 30.03 in    
Wind  
Wind Speed 11 mph (SSE)    
Max Wind Speed 17 mph    
Max Gust Speed 23 mph    
Visibility 10 miles    
Events      
T = Trace of Precipitation, MM = Missing Value Source: NWS Daily Summary

Daily Weather History Graph

Daily Weather History Graph

Search for Another Location

Airport or City:

Trip Planner

Search our weather history database for the weather conditions in past years. The results will help you decide how hot, cold, wet, or windy it might be!

Date:

Astronomy

Nov. 28, 2014 Rise Set
Actual Time 7:04 AM CST 4:41 PM CST
Civil Twilight 6:34 AM CST 5:10 PM CST
Nautical Twilight 6:00 AM CST 5:44 PM CST
Astronomical Twilight 5:28 AM CST 6:16 PM CST
Moon 11:58 AM CST (11/28) 11:29 PM CST (11/28)
Length of Visible Light 10h 36m
Length of Day
9h 36m
Waxing Crescent, 42% of the Moon is Illuminated
Nov 28
Waxing Crescent
Nov 29
First Quarter
Dec 6
Full
Dec 14
Last Quarter
Dec 21
New

Hourly Weather History & Observations

Time (CST) Temp. Windchill Dew Point Humidity Pressure Visibility Wind Dir Wind Speed Gust Speed Precip Events Conditions
12:54 AM 19.0 °F 7.5 °F 10.9 °F 71% 30.38 in 10.0 mi SE 10.4 mph - N/A   Clear
1:54 AM 19.9 °F 10.1 °F 12.9 °F 74% 30.36 in 10.0 mi SE 8.1 mph - N/A   Clear
2:54 AM 19.9 °F 10.1 °F 12.9 °F 74% 30.34 in 10.0 mi SE 8.1 mph - N/A   Clear
3:54 AM 19.9 °F 6.7 °F 15.1 °F 81% 30.29 in 10.0 mi SSE 13.8 mph - N/A   Clear
4:54 AM 21.0 °F 8.6 °F 16.0 °F 81% 30.25 in 10.0 mi SSE 12.7 mph - N/A   Scattered Clouds
5:54 AM 21.2 °F 8.9 °F 17.6 °F 86% 30.17 in 9.0 mi SSE 12.7 mph - N/A   Clear
6:54 AM 23.0 °F 11.7 °F 19.0 °F 85% 30.19 in 8.0 mi SSE 11.5 mph - N/A   Clear
7:54 AM 25.0 °F 13.6 °F 19.9 °F 81% 30.15 in 6.0 mi SSE 12.7 mph - N/A   Haze
8:54 AM 28.0 °F 17.5 °F 23.0 °F 81% 30.12 in 7.0 mi SSE 12.7 mph - N/A   Clear
9:54 AM 34.0 °F 24.2 °F 25.0 °F 70% 30.10 in 9.0 mi South 15.0 mph - N/A   Clear
10:54 AM 37.9 °F 29.6 °F 27.0 °F 65% 30.06 in 10.0 mi SSE 13.8 mph - N/A   Clear
11:54 AM 42.1 °F 35.2 °F 28.9 °F 60% 29.99 in 10.0 mi South 12.7 mph - N/A   Clear
12:54 PM 44.1 °F 37.1 °F 28.9 °F 55% 29.96 in 10.0 mi SSE 15.0 mph 19.6 mph N/A   Clear
1:54 PM 46.9 °F - 30.9 °F 54% 29.92 in 10.0 mi South 11.5 mph - N/A   Clear
2:54 PM 48.0 °F - 33.1 °F 56% 29.91 in 10.0 mi SSE 8.1 mph - N/A   Clear
3:54 PM 46.0 °F 42.5 °F 35.1 °F 66% 29.88 in 10.0 mi SSE 6.9 mph - N/A   Clear
4:54 PM 39.0 °F 34.0 °F 33.1 °F 79% 29.88 in 10.0 mi SE 6.9 mph - N/A   Clear
5:54 PM 36.0 °F 29.6 °F 30.9 °F 82% 29.88 in 10.0 mi SE 8.1 mph - N/A   Clear
6:54 PM 37.0 °F 31.0 °F 30.9 °F 79% 29.86 in 10.0 mi SE 8.1 mph - N/A   Clear
7:54 PM 37.0 °F 31.0 °F 30.9 °F 79% 29.85 in 10.0 mi SSE 8.1 mph - N/A   Clear
8:54 PM 43.0 °F 37.7 °F 32.0 °F 65% 29.83 in 10.0 mi South 9.2 mph - N/A   Clear
9:54 PM 44.1 °F 37.7 °F 33.1 °F 65% 29.82 in 10.0 mi South 12.7 mph - N/A   Clear
10:54 PM 42.1 °F 36.1 °F 33.1 °F 70% 29.81 in 10.0 mi South 10.4 mph - N/A   Clear
11:54 PM 43.0 °F 37.2 °F 33.1 °F 68% 29.78 in 10.0 mi South 10.4 mph - N/A   Clear